FW8920 Weather Reports


Display with metric or nautical units.
time (UTC)temp
F
wind
direction
speed
MPH
gust
MPH
rain 1hr
in
rain 24hr
in
rain mn
in
humidity
%
barometer
mb
20260506232040 58 238 0.0 4.0 0.05 0.27 0.27 94 1006.5
20260506231554 58 0 1.0 4.0 0.05 0.27 0.27 94 1006.5
20260506231039 58 0 0.0 3.0 0.05 0.27 0.27 94 1006.2
20260506230540 58 257 0.0 3.0 0.05 0.27 0.27 94 1006.4
20260506230050 58 0 0.0 3.0 0.06 0.27 0.27 94 1006.4
20260506225543 58 183 0.0 3.0 0.06 0.27 0.27 94 1006.2
20260506225041 58 193 1.0 3.0 0.05 0.26 0.26 93 1006.5
20260506224606 58 0 0.0 3.0 0.06 0.26 0.26 93 1006.5
20260506224039 58 202 1.0 4.0 0.06 0.26 0.26 93 1006.6
20260506223540 58 186 0.0 4.0 0.06 0.25 0.25 93 1006.6
20260506223054 58 254 1.0 4.0 0.06 0.24 0.24 93 1006.6
20260506222541 58 198 1.0 4.0 0.06 0.23 0.23 93 1006.6
20260506222040 58 0 0.0 3.0 0.06 0.22 0.22 93 1006.7
20260506221550 58 0 0.0 5.0 0.06 0.22 0.22 93 1006.6
20260506221039 58 200 1.0 5.0 0.08 0.22 0.22 93 1006.6
20260506220539 58 235 0.0 3.0 0.09 0.22 0.22 93 1006.7
20260506220101 58 222 0.0 4.0 0.08 0.21 0.21 93 1006.7
20260506215541 58 0 1.0 4.0 0.08 0.21 0.21 93 1006.8
20260506215041 58 0 0.0 3.0 0.07 0.20 0.20 93 1006.7
20260506214551 58 217 1.0 6.0 0.07 0.20 0.20 93 1006.8
20260506214039 58 0 1.0 6.0 0.07 0.20 0.20 92 1006.8
20260506213539 58 242 1.0 3.0 0.06 0.19 0.19 93 1006.7
20260506213049 58 0 0.0 3.0 0.05 0.18 0.18 93 1006.8
20260506212540 58 205 0.0 5.0 0.05 0.17 0.17 92 1006.9
20260506212040 58 0 1.0 5.0 0.04 0.16 0.16 92 1006.9
20260506211554 58 200 0.0 3.0 0.04 0.16 0.16 92 1006.9
20260506211040 58 198 1.0 5.0 0.03 0.14 0.14 92 1007.0
20260506210540 58 193 1.0 5.0 0.02 0.13 0.13 91 1007.1
20260506210054 58 173 1.0 5.0 0.03 0.13 0.13 91 1007.1
20260506205539 58 157 1.0 5.0 0.03 0.13 0.13 92 1007.0
20260506205039 58 254 1.0 4.0 0.03 0.13 0.13 92 1007.1
20260506204548 58 0 1.0 5.0 0.04 0.13 0.13 92 1007.1
20260506204039 59 257 1.0 5.0 0.04 0.13 0.13 91 1007.2
20260506203540 59 171 1.0 4.0 0.05 0.13 0.13 92 1007.2
20260506203058 59 188 1.0 4.0 0.05 0.13 0.13 91 1007.2
20260506202541 59 272 1.0 4.0 0.04 0.12 0.12 91 1007.2
20260506202039 59 202 0.0 4.0 0.04 0.12 0.12 92 1007.5
20260506201551 59 232 1.0 4.0 0.03 0.11 0.11 91 1007.2
20260506201040 59 238 1.0 3.0 0.03 0.11 0.11 91 1007.4
20260506200539 59 169 0.0 4.0 0.04 0.11 0.11 91 1007.3
20260506200051 59 0 0.0 5.0 0.03 0.10 0.10 91 1007.5
20260506195540 59 181 1.0 5.0 0.03 0.10 0.10 91 1007.5
20260506195041 59 227 1.0 4.0 0.03 0.10 0.10 91 1007.4
20260506194553 59 168 0.0 4.0 0.03 0.09 0.09 91 1007.4
20260506194040 60 239 2.0 5.0 0.03 0.09 0.09 90 1007.5
20260506193539 60 167 2.0 5.0 0.02 0.08 0.08 90 1007.6
20260506193052 60 170 1.0 4.0 0.03 0.08 0.08 91 1007.5
20260506192540 60 175 1.0 4.0 0.04 0.08 0.08 90 1007.5
20260506192040 60 186 1.0 4.0 0.05 0.08 0.08 90 1007.6
20260506191548 60 195 1.0 5.0 0.05 0.08 0.08 90 1007.5
20260506191040 60 171 2.0 5.0 0.06 0.08 0.08 90 1007.6
20260506190542 60 219 1.0 6.0 0.05 0.07 0.07 90 1007.6
20260506190052 60 210 2.0 6.0 0.05 0.07 0.07 90 1007.5
20260506185539 60 221 0.0 3.0 0.06 0.07 0.07 90 1007.7
20260506185040 60 213 0.0 4.0 0.07 0.07 0.07 90 1007.6
20260506184551 61 0 0.0 5.0 0.06 0.06 0.06 89 1007.3
20260506184040 61 219 1.0 5.0 0.06 0.06 0.06 88 1007.5
20260506183543 61 140 1.0 5.0 0.06 0.06 0.06 88 1007.7
20260506183058 61 0 1.0 5.0 0.05 0.05 0.05 87 1007.8
20260506182540 62 206 1.0 5.0 0.04 0.04 0.04 87 1007.8
20260506182039 62 190 0.0 2.0 0.03 0.03 0.03 86 1008.2
20260506181604 62 0 0.0 2.0 0.03 0.03 0.03 86 1008.2
20260506181040 63 223 0.0 3.0 0.02 0.02 0.02 85 1008.3
20260506180541 63 0 0.0 3.0 0.02 0.02 0.02 83 1008.1
20260506180054 64 0 1.0 4.0 0.01 0.01 0.01 82 1008.3
20260506175540 64 0 0.0 4.0 0.01 0.01 0.01 80 1008.5
20260506175039 65 313 1.0 4.0 0.00 0.00 0.00 78 1008.5
20260506174545 66 285 1.0 9.0 0.00 0.00 0.00 74 1008.5
20260506174040 67 237 2.0 9.0 0.00 0.00 0.00 72 1008.6
20260506173542 68 259 1.0 8.0 0.00 0.00 0.00 69 1008.5
20260506173107 69 157 3.0 8.0 0.00 0.00 0.00 67 1008.2
20260506172541 69 178 2.0 6.0 0.00 0.00 0.00 67 1008.1
20260506172041 69 207 1.0 5.0 0.00 0.00 0.00 66 1008.1
20260506171553 69 199 2.0 9.0 0.00 0.00 0.00 65 1008.1
20260506171043 69 132 3.0 9.0 0.00 0.00 0.00 64 1008.0
20260506170541 69 217 1.0 7.0 0.00 0.00 0.00 65 1008.0
20260506170059 69 155 3.0 9.0 0.00 0.00 0.00 64 1008.1
20260506165543 69 212 3.0 10.0 0.00 0.00 0.00 63 1008.2
20260506165041 70 183 3.0 10.0 0.00 0.00 0.00 62 1008.1
20260506164552 70 253 2.0 7.0 0.00 0.00 0.00 62 1008.3
20260506164040 70 213 2.0 6.0 0.00 0.00 0.00 62 1008.2
20260506163544 70 269 2.0 9.0 0.00 0.00 0.00 62 1008.2
20260506163047 69 192 3.0 9.0 0.00 0.00 0.00 63 1008.2
20260506162542 69 181 1.0 5.0 0.00 0.00 0.00 64 1008.4
20260506162042 69 246 1.0 4.0 0.00 0.00 0.00 65 1008.5
20260506161550 69 211 1.0 5.0 0.00 0.00 0.00 64 1008.6
20260506161040 69 194 1.0 6.0 0.00 0.00 0.00 64 1008.8
20260506160540 69 210 1.0 7.0 0.00 0.00 0.00 64 1008.9
20260506155541 69 248 2.0 10.0 0.00 0.00 0.00 64 1009.1
20260506155041 69 207 4.0 10.0 0.00 0.00 0.00 64 1009.1
20260506154551 69 243 1.0 6.0 0.00 0.00 0.00 65 1009.2
20260506154043 68 161 1.0 6.0 0.00 0.00 0.00 64 1009.2
20260506153540 68 216 1.0 8.0 0.00 0.00 0.00 66 1009.3
20260506153047 68 253 2.0 9.0 0.00 0.00 0.00 65 1009.4
20260506152540 68 184 3.0 9.0 0.00 0.00 0.00 65 1009.3
20260506152041 68 200 1.0 8.0 0.00 0.00 0.00 66 1009.3
20260506151547 68 190 2.0 8.0 0.00 0.00 0.00 65 1009.4
20260506151040 68 309 1.0 7.0 0.00 0.00 0.00 66 1009.5
20260506150542 68 194 2.0 9.0 0.00 0.00 0.00 66 1009.6
20260506150051 68 241 1.0 10.0 0.00 0.00 0.00 67 1009.6
20260506145541 68 351 2.0 10.0 0.00 0.00 0.00 66 1009.7
20260506145040 69 142 2.0 6.0 0.00 0.00 0.00 67 1009.6
20260506144552 68 248 1.0 6.0 0.00 0.00 0.00 68 1009.6
20260506144040 68 240 2.0 8.0 0.00 0.00 0.00 68 1009.5
20260506143539 67 189 3.0 9.0 0.00 0.00 0.00 68 1009.8
20260506143051 67 0 3.0 9.0 0.00 0.00 0.00 69 1009.8
20260506142539 67 230 2.0 9.0 0.00 0.00 0.00 69 1009.7
20260506142042 67 207 2.0 10.0 0.00 0.00 0.00 69 1009.7
20260506141545 67 235 2.0 10.0 0.00 0.00 0.00 70 1009.6
20260506141039 67 250 2.0 6.0 0.00 0.00 0.00 70 1009.6
20260506140542 66 211 2.0 5.0 0.00 0.00 0.00 70 1009.7
20260506140049 66 122 0.0 7.0 0.00 0.00 0.00 71 1009.5
20260506135538 66 144 2.0 7.0 0.00 0.00 0.00 71 1009.5
20260506135040 66 171 2.0 8.0 0.00 0.00 0.00 71 1009.4
20260506134551 66 223 3.0 8.0 0.00 0.00 0.00 71 1009.3
20260506134040 66 9 2.0 6.0 0.00 0.00 0.00 72 1009.7
20260506133541 66 175 2.0 6.0 0.00 0.00 0.00 72 1009.7
20260506133045 66 198 1.0 6.0 0.00 0.00 0.00 73 1009.5
20260506132540 65 256 1.0 7.0 0.00 0.00 0.00 73 1009.8
20260506132042 65 175 2.0 7.0 0.00 0.00 0.00 74 1009.6
20260506131558 65 126 1.0 5.0 0.00 0.00 0.00 74 1009.8
20260506131041 65 202 2.0 6.0 0.00 0.00 0.00 74 1010.0
20260506130540 64 225 2.0 6.0 0.00 0.00 0.00 75 1010.1
20260506130053 64 0 1.0 6.0 0.00 0.00 0.00 76 1010.1
20260506125539 64 213 2.0 6.0 0.00 0.00 0.00 76 1010.3
20260506125039 64 221 1.0 6.0 0.00 0.00 0.00 76 1010.3
20260506124552 63 190 0.0 4.0 0.00 0.00 0.00 76 1010.4
20260506124039 63 202 1.0 4.0 0.00 0.00 0.00 76 1010.2
20260506123539 63 0 1.0 10.0 0.00 0.00 0.00 76 1010.2
20260506123048 63 192 2.0 11.0 0.00 0.00 0.00 76 1010.2
20260506122539 64 206 2.0 11.0 0.00 0.00 0.00 76 1010.2
20260506122038 63 209 1.0 6.0 0.00 0.00 0.00 77 1010.1
20260506121548 63 242 2.0 4.0 0.00 0.00 0.00 78 1009.9
20260506121041 62 207 0.0 6.0 0.00 0.00 0.00 78 1010.1
20260506120541 62 258 2.0 6.0 0.00 0.00 0.00 78 1010.2
20260506120049 62 227 2.0 6.0 0.00 0.00 0.00 78 1010.4
20260506115541 62 245 2.0 6.0 0.00 0.00 0.00 78 1010.3
20260506115038 62 244 2.0 8.0 0.00 0.00 0.00 78 1010.2
20260506114547 62 233 1.0 9.0 0.00 0.00 0.00 79 1009.9
20260506114039 61 233 2.0 9.0 0.00 0.00 0.00 79 1010.0
20260506113539 61 271 1.0 6.0 0.00 0.00 0.00 80 1010.1
20260506113046 60 188 1.0 4.0 0.00 0.00 0.00 80 1010.4
20260506112541 60 248 1.0 3.0 0.00 0.00 0.00 81 1010.3
20260506112038 60 209 1.0 3.0 0.00 0.00 0.00 80 1010.4
20260506111552 60 217 0.0 3.0 0.00 0.00 0.00 80 1010.4
20260506111037 60 196 0.0 3.0 0.00 0.00 0.00 81 1010.6
20260506110538 60 0 1.0 3.0 0.00 0.00 0.00 81 1010.7
20260506110050 60 230 1.0 5.0 0.00 0.00 0.00 81 1010.7
20260506105539 60 250 1.0 5.0 0.00 0.00 0.00 81 1010.4
20260506105039 59 198 2.0 5.0 0.00 0.00 0.00 81 1010.3
20260506104550 59 182 1.0 4.0 0.00 0.00 0.00 82 1010.4
20260506104038 59 187 1.0 4.0 0.00 0.00 0.00 82 1010.4
20260506103538 58 0 0.0 7.0 0.00 0.00 0.00 83 1010.6
20260506103044 58 217 1.0 7.0 0.00 0.00 0.00 83 1010.3
20260506102538 58 0 0.0 4.0 0.00 0.00 0.00 83 1010.4
20260506102037 58 0 0.0 2.0 0.00 0.00 0.00 83 1010.3
20260506101544 58 0 1.0 2.0 0.00 0.00 0.00 82 1010.2
20260506101038 58 0 0.0 2.0 0.00 0.00 0.00 82 1010.2
20260506100539 58 0 0.0 3.0 0.00 0.00 0.00 82 1010.4
20260506100051 58 0 1.0 4.0 0.00 0.00 0.00 82 1010.4
20260506095538 58 0 1.0 4.0 0.00 0.00 0.00 82 1010.4
20260506095040 58 205 0.0 4.0 0.00 0.00 0.00 82 1010.3
20260506094604 58 220 0.0 4.0 0.00 0.00 0.00 82 1010.3
20260506094037 58 0 0.0 3.0 0.00 0.00 0.00 81 1010.2
20260506093540 58 0 0.0 3.0 0.00 0.00 0.00 81 1010.3
20260506093047 58 0 0.0 2.0 0.00 0.00 0.00 81 1010.3
20260506092538 58 0 0.0 3.0 0.00 0.00 0.00 81 1010.3
20260506092038 58 0 0.0 3.0 0.00 0.00 0.00 80 1010.3
20260506091549 58 275 1.0 3.0 0.00 0.00 0.00 81 1010.1
20260506091039 58 259 0.0 3.0 0.00 0.00 0.00 80 1010.2
20260506090538 58 0 1.0 6.0 0.00 0.00 0.00 80 1010.4
20260506090046 58 253 1.0 6.0 0.00 0.00 0.00 80 1010.3
20260506085538 58 182 1.0 5.0 0.00 0.00 0.00 80 1010.3
20260506085039 58 219 0.0 5.0 0.00 0.00 0.00 80 1010.2
20260506084550 58 200 0.0 5.0 0.00 0.00 0.00 80 1010.2
20260506084039 58 200 1.0 5.0 0.00 0.00 0.00 80 1010.4
20260506083543 58 0 1.0 5.0 0.00 0.00 0.00 80 1010.4
20260506083051 58 180 1.0 3.0 0.00 0.00 0.00 80 1010.4
20260506082538 58 221 1.0 4.0 0.00 0.00 0.00 80 1010.5
20260506082038 58 246 1.0 4.0 0.00 0.00 0.00 80 1010.4
20260506081546 58 229 1.0 3.0 0.00 0.00 0.00 80 1010.4
20260506081040 58 0 0.0 4.0 0.00 0.00 0.00 79 1010.5
20260506080541 59 0 0.0 4.0 0.00 0.00 0.00 79 1010.6
20260506073050 60 0 0.0 5.0 0.00 0.00 0.00 76 1010.4
20260506072543 60 200 0.0 3.0 0.00 0.00 0.00 76 1010.5
20260506072039 60 0 0.0 6.0 0.00 0.00 0.00 76 1010.5
20260506071551 60 0 1.0 6.0 0.00 0.00 0.00 76 1010.4
20260506071038 60 0 0.0 4.0 0.00 0.00 0.00 75 1010.3
20260506070542 60 0 1.0 5.0 0.00 0.00 0.00 75 1010.3
20260506062046 61 258 1.0 3.0 0.00 0.00 0.00 73 1010.1
20260506061547 61 255 1.0 3.0 0.00 0.00 0.00 72 1010.1
20260506061041 62 221 0.0 4.0 0.00 0.00 0.00 72 1010.1
20260506060541 62 0 1.0 5.0 0.00 0.00 0.00 72 1010.2
20260506060112 62 265 1.0 5.0 0.00 0.00 0.00 71 1010.2
20260506051037 62 0 0.0 4.0 0.00 0.00 0.00 68 1010.3
20260506050537 62 269 1.0 4.0 0.00 0.00 0.00 68 1010.3
20260506045041 63 213 1.0 9.0 0.00 0.00 0.00 67 1010.6
20260506044549 63 235 1.0 6.0 0.00 0.00 0.00 67 1010.5
20260506044038 63 207 2.0 6.0 0.00 0.00 0.00 67 1010.4
20260506043537 63 234 1.0 6.0 0.00 0.00 0.00 67 1010.5
20260506043050 62 186 1.0 6.0 0.00 0.00 0.00 67 1010.5
20260506042538 62 289 1.0 6.0 0.00 0.00 0.00 67 1010.5
20260506042038 62 209 1.0 6.0 0.00 0.00 0.00 68 1010.6
20260506041550 62 0 1.0 5.0 0.00 0.00 0.00 68 1010.6
20260506041037 62 267 1.0 5.0 0.00 0.00 0.00 67 1010.6
20260506040538 62 255 2.0 5.0 0.00 0.00 0.00 67 1010.6
20260506040052 62 218 1.0 4.0 0.00 0.00 0.00 67 1010.5
20260506035538 62 208 0.0 4.0 0.00 0.00 0.00 67 1010.6
20260506035037 62 219 1.0 6.0 0.00 0.00 0.00 67 1010.7
20260506034551 62 0 1.0 6.0 0.00 0.00 0.00 68 1010.6
20260506034039 62 0 1.0 5.0 0.00 0.00 0.00 67 1010.6
20260506033537 62 252 1.0 5.0 0.00 0.00 0.00 67 1010.5
20260506033052 62 231 1.0 5.0 0.00 0.00 0.00 67 1010.6
20260506032542 62 262 0.0 5.0 0.00 0.00 0.00 67 1010.5
20260506032041 62 244 1.0 6.0 0.00 0.00 0.00 67 1010.5
20260506031556 62 261 0.0 7.0 0.00 0.00 0.00 66 1010.5
20260506031044 62 241 1.0 7.0 0.00 0.00 0.00 66 1010.6
20260506030541 63 259 1.0 6.0 0.00 0.00 0.00 66 1010.5
20260506030050 63 239 1.0 6.0 0.00 0.00 0.00 65 1010.6
20260506025538 63 286 2.0 6.0 0.00 0.00 0.00 65 1010.6
20260506025038 63 294 1.0 6.0 0.00 0.00 0.00 65 1010.6
20260506024558 63 350 2.0 6.0 0.00 0.00 0.00 64 1010.4
20260506024038 63 243 1.0 5.0 0.00 0.00 0.00 64 1010.5
20260506023538 63 252 1.0 5.0 0.00 0.00 0.00 64 1010.4
20260506023050 64 273 1.0 5.0 0.00 0.00 0.00 63 1010.4
20260506022537 64 180 1.0 8.0 0.00 0.00 0.00 63 1010.3
20260506022037 64 261 1.0 8.0 0.00 0.00 0.00 63 1010.4
20260506021547 64 215 2.0 6.0 0.00 0.00 0.00 63 1010.3
20260506021039 64 0 0.0 5.0 0.00 0.00 0.00 63 1010.3
20260506020538 64 243 1.0 5.0 0.00 0.00 0.00 62 1010.4
20260506020045 64 208 0.0 3.0 0.00 0.00 0.00 63 1010.4
20260506015539 64 0 0.0 3.0 0.00 0.00 0.00 63 1010.4
20260506015038 65 134 0.0 3.0 0.00 0.00 0.00 62 1010.3
20260506014551 65 0 0.0 3.0 0.00 0.00 0.00 62 1010.2
20260506014041 65 257 0.0 4.0 0.00 0.00 0.00 61 1010.2
20260506013538 65 204 0.0 4.0 0.00 0.00 0.00 61 1010.1
20260506013046 65 0 1.0 5.0 0.00 0.00 0.00 61 1009.9
20260506012539 66 241 0.0 6.0 0.00 0.00 0.00 61 1009.8
20260506012041 66 0 1.0 6.0 0.00 0.00 0.00 60 1009.7
20260506011550 66 303 1.0 4.0 0.00 0.00 0.00 60 1009.6
20260506011038 66 238 1.0 9.0 0.00 0.00 0.00 59 1009.5
20260506010541 67 247 3.0 9.0 0.00 0.00 0.00 58 1009.5
20260506010051 67 244 1.0 5.0 0.00 0.00 0.00 58 1009.6
20260506005537 67 199 1.0 4.0 0.00 0.00 0.00 58 1009.7
20260506005038 67 238 1.0 4.0 0.00 0.00 0.00 57 1009.5
20260506004546 68 222 1.0 8.0 0.00 0.00 0.00 57 1009.5
20260506004038 68 215 1.0 8.0 0.00 0.00 0.00 57 1009.5
20260506003537 68 264 2.0 8.0 0.00 0.00 0.00 56 1009.4
20260506003046 68 229 1.0 4.0 0.00 0.00 0.00 56 1009.4
20260506002541 68 264 1.0 7.0 0.00 0.00 0.00 55 1009.2
20260506002039 68 167 1.0 7.0 0.00 0.00 0.00 55 1009.1
20260506001551 69 199 2.0 5.0 0.00 0.00 0.00 55 1008.9
20260506001038 69 207 1.0 5.0 0.00 0.00 0.00 54 1009.0
20260506000537 69 281 2.0 7.0 0.00 0.00 0.00 54 1008.8
20260506000052 69 225 2.0 10.0 0.00 0.00 0.00 53 1008.8
20260505235540 70 158 2.0 10.0 0.00 0.00 0.00 53 1008.6
20260505235038 70 196 3.0 8.0 0.00 0.00 0.00 52 1008.6
20260505234551 70 170 2.0 6.0 0.00 0.00 0.00 52 1008.6
20260505234040 71 0 3.0 6.0 0.00 0.00 0.00 51 1008.4
20260505233537 71 243 2.0 7.0 0.00 0.00 0.00 51 1008.2
20260505233045 71 225 3.0 7.0 0.00 0.00 0.00 51 1008.2
20260505232538 72 266 2.0 7.0 0.00 0.00 0.00 50 1008.2